SCP
0 0 0 1 1 0 0 0 0 0 0 0 0 0 0 0 0 0 0 0 0 0 0 0 0 0 0 0 0 0 0 0 0 0 0 0 0 0 0 0 0 0 0 0 0 0 0 0 -0
0 0 0 1 0 0 0 0 0 0 0 0 0 0 0 0 0 0 0 0 0 0 0 0 0 0 0 0 0 0 0 0 0 0 0 0 0 0 0 0 0 0 0 0 0 0 0 -0 -0
0 0 0 0 0 0 0 0 0 0 0 0 0 0 0 0 0 0 0 0 0 0 0 0 0 0 0 0 0 0 0 0 0 0 0 0 0 0 0 0 0 0 0 0 0 0 0 -0 -0
0 0 0 0 0 0 0 0 0 0 0 0 0 0 0 0 0 0 0 0 0 0 0 0 0 0 0 0 0 0 0 0 0 0 0 0 0 0 0 0 0 0 0 0 0 0 0 -0 -0
0 0 0 0 0 0 0 0 0 0 0 0 0 0 0 0 0 0 0 0 0 0 0 0 0 0 0 0 0 0 0 0 0 0 0 0 0 0 0 0 0 0 0 0 0 0 0 -0 -0
0 0 0 0 0 0 0 0 0 0 0 0 0 0 0 0 0 0 0 0 0 0 0 0 0 0 0 0 0 0 0 0 0 0 0 0 0 0 0 0 0 0 0 0 0 0 0 0 -0
0 0 0 0 0 0 0 0 0 0 0 0 0 0 0 0 0 0 0 0 0 0 0 0 0 0 0 0 0 0 0 0 0 0 0 0 0 0 0 0 0 0 0 0 0 0 0 0 0
0 0 0 0 0 0 0 0 0 0 0 0 0 0 0 0 0 0 0 0 0 0 0 0 0 0 0 0 0 0 0 0 0 0 0 0 0 0 0 0 0 0 0 0 0 0 0 0 0
0 0 0 0 0 0 0 0 0 0 0 0 0 0 0 0 0 0 0 0 0 0 0 0 0 0 0 0 0 0 0 0 0 0 0 0 0 0 0 0 0 0 0 0 0 0 0 0 0
0 0 0 0 0 0 0 0 0 0 0 0 0 0 0 0 0 0 0 0 0 0 0 0 0 0 0 0 0 0 0 0 0 0 0 0 0 0 0 0 0 0 0 0 0 0 0 0 0
0 0 0 0 0 0 0 0 0 0 0 0 0 0 0 0 0 0 0 0 0 0 0 0 0 0 0 0 0 0 0 0 0 0 0 0 0 0 0 0 0 0 0 0 0 0 0 0 0
0 0 0 0 0 0 0 0 0 0 0 0 0 0 0 0 0 0 1 1 1 0 0 0 1 0 0 0 0 0 0 0 0 0 0 0 0 0 0 0 0 0 0 0 0 0 0 0 0
0 0 0 0 0 0 0 0 0 0 0 0 0 0 0 0 0 0 1 1 1 1 1 1 1 1 0 0 0 0 0 0 0 0 0 0 0 0 0 0 0 0 0 0 0 0 0 0 0
0 0 0 0 0 0 0 0 0 0 0 0 0 0 0 0 0 1 1 1 1 1 1 1 1 1 1 0 0 0 0 0 0 0 0 0 0 0 0 0 0 0 0 0 0 0 0 0 0
0 0 0 0 0 0 0 0 0 0 0 0 0 0 1 1 1 1 1 1 1 1 1 1 1 1 1 0 0 0 0 0 0 0 1 0 0 0 0 0 0 0 0 0 0 0 0 0 0
0 0 0 0 0 0 0 0 0 0 0 0 0 1 1 1 1 1 1 1 1 1 1 1 1 1 1 0 0 0 0 0 0 1 1 1 0 0 0 0 0 0 0 0 0 0 0 0 0
0 0 0 0 0 0 0 0 0 0 0 0 0 1 1 1 1 1 1 1 1 1 1 1 1 1 1 1 0 0 0 0 0 1 1 1 0 0 0 0 0 0 0 0 0 0 0 0 0
0 0 0 0 0 0 0 0 0 0 0 0 1 1 1 1 1 1 1 1 1 2 2 1 1 1 1 1 1 0 0 0 0 0 1 1 0 0 0 0 0 0 0 0 0 0 0 0 0
0 0 0 0 0 0 0 0 0 0 0 0 1 1 1 1 1 1 1 1 1 2 2 2 1 1 1 1 1 1 0 0 0 0 1 1 0 0 0 0 0 0 0 0 0 0 0 0 0
0 0 0 0 0 0 0 0 0 0 0 0 0 1 1 1 1 2 2 2 2 2 2 2 2 1 1 1 1 1 1 0 0 0 1 1 1 0 0 0 0 0 0 0 0 0 0 0 0
0 0 0 0 0 0 0 0 0 0 0 0 0 1 1 1 1 2 2 2 2 2 2 2 2 2 1 1 1 1 1 1 0 1 1 1 1 1 1 1 1 0 0 0 0 0 0 0 0
0 0 0 0 0 0 0 0 0 0 0 0 0 1 1 1 1 2 2 2 2 2 2 2 2 2 1 1 1 1 1 1 1 1 1 1 1 1 1 1 1 1 1 1 1 1 1 1 0
0 0 0 0 0 0 0 0 0 0 0 0 0 1 1 1 1 2 2 2 2 2 2 2 2 2 1 1 1 1 1 1 1 1 1 1 1 1 1 1 1 1 1 1 1 1 1 1 1
0 0 0 0 0 0 0 0 0 0 0 0 0 1 1 1 1 1 2 2 2 2 2 2 2 2 1 1 1 1 1 1 1 1 1 1 1 1 1 1 1 1 1 1 1 1 1 1 1
0 0 0 0 0 0 0 0 0 0 0 0 0 1 1 1 1 1 1 2 2 2 2 2 2 2 1 1 1 1 1 1 1 1 1 1 1 1 1 1 1 1 1 1 1 1 1 1 1
0 0 0 0 0 0 0 0 0 0 0 0 1 1 1 1 1 1 1 1 1 1 2 2 2 2 2 1 1 1 1 1 1 1 1 1 1 1 1 1 1 1 1 1 1 1 1 1 1
0 0 0 0 0 0 0 0 0 0 0 0 1 1 1 1 1 1 1 1 1 1 1 2 2 2 2 1 1 1 1 1 1 1 1 1 1 1 1 1 1 1 1 1 1 1 1 1 1
0 0 0 0 0 0 0 0 0 0 0 0 1 1 1 1 1 1 1 1 1 1 1 1 2 2 2 1 1 1 1 1 1 1 1 1 1 1 1 1 1 1 1 1 1 1 1 1 1
0 0 0 0 0 0 0 0 0 0 0 0 1 1 1 1 1 1 1 1 1 1 1 1 1 1 1 1 1 1 1 1 1 1 1 1 1 1 1 1 1 1 1 1 1 1 1 1 1
-0 0 0 0 0 0 0 0 0 0 0 0 1 1 1 1 1 1 1 1 1 1 1 1 1 1 1 1 1 1 1 1 1 1 1 1 1 1 1 1 1 1 1 1 1 1 1 1 1
Wind_Speed
9 12 10 6 4 2 12 14 15 14 14 12 13 14 17 15 13 14 15 20 20 18 15 15 14 14 14 13 13 13 13 13 12 13 13 13 13 14 14 14 14 14 15 15 15 14 14 14 14
10 13 8 4 1 7 13 14 15 13 11 12 14 17 17 18 17 17 16 18 20 18 15 14 15 14 14 13 12 12 12 12 12 12 12 12 13 13 13 14 14 14 15 14 14 14 14 13 13
13 15 6 3 3 10 14 13 12 12 11 13 17 17 14 14 16 15 16 18 19 17 16 15 15 14 13 13 12 12 12 12 12 12 12 12 13 13 13 14 14 14 14 14 14 14 13 12 11
10 7 4 0 10 14 14 12 12 12 11 13 15 14 14 13 15 17 17 19 19 18 16 15 15 14 13 12 12 11 11 11 11 11 11 11 12 12 13 13 13 13 14 14 13 13 12 11 9
8 6 1 4 11 14 12 11 12 11 12 16 18 17 14 14 17 17 16 17 17 18 16 15 15 14 13 12 11 10 10 11 11 11 11 11 11 12 12 13 13 13 13 13 12 12 11 10 8
5 4 0 5 9 13 11 11 12 12 13 15 18 17 13 14 14 14 15 15 17 18 17 15 14 14 12 11 11 10 10 10 10 10 10 11 11 11 12 12 12 12 12 12 11 11 10 8 6
7 6 2 6 9 11 11 10 11 12 11 12 16 15 13 14 13 13 13 14 17 19 17 14 13 12 12 11 10 10 10 10 10 10 10 10 11 11 11 11 11 11 11 10 10 10 9 7 4
5 4 6 5 9 10 10 10 11 12 10 9 12 12 15 15 13 13 13 13 14 16 16 14 14 12 11 10 10 10 10 10 10 10 10 10 10 11 11 11 10 10 10 9 9 8 7 5 3
5 4 3 4 7 9 10 10 11 11 9 10 12 17 19 18 15 14 12 11 11 12 12 13 14 12 11 11 11 10 10 9 9 8 9 9 7 8 8 10 10 9 9 8 7 7 6 5 4
3 3 2 4 7 9 7 7 9 10 8 13 17 19 19 17 15 14 13 12 11 10 10 10 11 9 8 9 9 7 7 7 5 5 7 4 3 4 8 10 9 8 8 7 7 7 6 6 4
4 1 1 4 8 7 6 6 8 9 8 11 17 20 18 17 14 13 12 11 11 9 8 11 10 6 6 6 6 4 4 5 5 5 5 4 4 5 6 5 6 5 7 5 6 6 5 4 2
3 2 1 4 6 4 4 5 8 9 9 13 18 19 18 17 14 13 13 12 11 9 8 10 10 6 4 4 4 4 4 4 4 5 5 4 2 3 4 3 4 4 3 3 4 3 3 3 2
4 3 2 1 2 3 3 5 7 10 13 16 18 18 17 16 14 12 11 12 11 8 8 8 9 6 4 2 0 3 3 4 5 4 3 4 3 3 3 2 2 3 3 3 2 2 2 1 0
4 4 2 2 2 2 3 5 6 10 14 15 17 15 15 14 14 12 11 10 10 9 8 8 8 7 5 3 1 0 2 3 3 4 4 4 3 3 3 2 1 1 2 2 2 2 2 2 1
7 6 6 6 5 4 2 3 7 11 14 14 15 14 14 13 13 12 12 11 11 9 8 8 8 8 6 5 4 3 3 4 3 4 5 4 3 4 3 2 2 1 1 2 1 1 1 2 2
7 8 9 7 7 6 4 3 7 10 13 12 13 13 13 12 13 12 12 10 10 10 8 8 8 10 7 4 3 2 2 3 3 4 4 4 3 4 2 2 2 2 2 2 2 1 1 2 1
11 10 10 8 9 6 5 3 7 9 11 12 12 12 13 12 12 12 12 11 10 9 9 7 5 9 8 6 4 3 1 1 2 3 3 4 4 4 3 2 2 2 2 2 3 2 2 1 1
9 9 9 9 9 7 6 5 8 9 10 11 12 13 13 13 12 11 11 11 10 9 8 8 6 6 7 5 4 2 2 2 1 2 3 4 4 4 3 3 3 2 2 2 1 1 1 1 2
13 8 6 5 7 6 6 7 8 9 9 9 10 12 13 13 13 11 11 11 12 10 9 9 8 7 5 4 5 4 3 2 2 3 4 4 4 4 4 3 3 3 2 3 2 2 3 3 2
12 10 7 4 6 4 5 8 8 9 9 9 10 11 12 13 13 12 11 11 11 10 10 9 9 8 7 5 4 3 3 3 3 2 3 4 4 4 5 4 3 3 2 3 3 2 2 3 3
11 11 9 5 3 4 8 10 8 8 8 9 10 11 12 13 14 13 12 11 12 12 11 9 9 8 8 6 4 3 2 2 2 3 3 4 5 4 3 4 4 3 3 3 4 3 4 3 3
11 10 9 7 6 6 9 7 6 8 9 10 10 11 12 12 13 13 13 11 11 11 10 8 8 7 7 6 6 6 4 4 4 3 3 4 4 4 4 4 4 3 3 3 4 4 3 3 3
11 7 7 9 9 10 10 9 5 8 9 10 10 11 11 12 12 13 12 11 10 10 10 9 8 7 6 6 5 4 4 3 2 2 3 3 3 4 4 4 4 4 3 3 3 2 3 3 4
10 7 7 10 10 12 12 10 6 5 8 9 9 10 10 11 11 11 11 10 10 10 9 9 8 7 7 6 5 5 4 3 3 2 2 3 2 3 4 4 3 4 3 4 3 3 4 3 3
12 9 7 8 9 10 10 9 3 5 6 6 8 10 11 10 11 11 10 10 9 10 9 9 9 8 7 7 6 5 4 4 3 3 3 3 2 2 2 2 2 3 3 3 3 3 3 3 3
13 14 10 8 7 7 8 8 5 7 7 6 6 8 11 11 10 10 10 9 9 9 9 9 9 8 7 6 5 4 4 3 3 3 2 2 2 2 1 2 2 2 3 4 3 3 3 3 3
15 15 16 13 12 9 5 4 5 7 8 8 7 6 8 10 11 11 11 10 8 8 8 8 8 7 7 6 5 4 4 3 2 2 2 1 1 1 1 2 2 2 2 2 2 2 2 2 2
15 14 10 11 10 10 7 8 5 10 9 9 9 8 8 9 10 11 10 9 8 8 7 7 7 7 6 5 4 4 3 2 2 1 1 0 1 1 1 0 1 1 1 1 1 1 2 2 2
15 15 12 9 10 9 7 3 1 6 9 9 10 9 8 8 10 10 9 8 8 8 8 7 7 6 6 5 4 3 3 2 2 1 0 1 1 0 0 0 0 0 0 0 1 1 1 1 1
15 15 14 10 9 9 7 2 2 2 7 9 10 11 10 8 10 11 10 8 8 8 8 7 7 6 6 5 4 4 3 3 2 1 1 1 1 1 1 0 1 1 0 0 0 0 0 0 0
Wind_Direction
259 251 240 256 261 84 71 73 73 73 71 65 60 68 66 61 77 93 108 109 110 111 114 111 105 104 102 101 99 98 98 96 93 92 91 92 94 95 95 95 94 94 94 94 94 95 94 93 94
274 265 248 248 280 79 76 73 75 76 84 85 74 74 75 76 87 101 108 113 115 118 118 111 110 107 104 103 101 100 100 98 96 94 92 92 95 96 97 97 96 96 96 96 96 97 96 95 97
268 261 261 229 85 81 82 82 86 83 81 87 78 68 70 89 98 106 116 116 111 108 108 113 113 110 107 104 103 101 101 99 98 97 94 94 95 96 98 98 98 97 98 98 97 97 97 98 100
268 257 236 167 80 80 86 91 94 93 88 86 87 82 78 86 104 116 123 117 116 118 116 116 116 113 111 108 105 104 104 104 102 100 98 97 97 97 99 100 100 99 100 99 98 99 99 99 100
261 273 275 79 84 87 85 84 85 87 83 84 90 93 90 97 111 122 124 124 124 118 119 121 121 118 115 112 110 108 107 107 107 105 103 102 101 101 103 103 103 102 102 101 101 101 101 101 99
271 268 197 101 92 93 93 91 90 87 89 101 105 102 100 114 123 131 128 129 124 122 120 123 124 123 120 117 114 111 111 111 111 110 109 108 108 106 107 107 106 106 105 105 104 104 104 103 98
275 297 287 116 105 96 93 95 95 97 94 97 108 110 123 133 134 131 128 127 124 122 127 135 134 129 126 122 120 118 118 117 116 117 118 118 117 115 113 110 110 111 112 112 110 111 112 110 104
285 314 304 110 107 99 98 95 94 95 95 106 117 122 137 139 141 132 130 126 125 129 135 141 142 141 144 134 130 128 127 126 125 128 130 129 127 127 126 121 116 118 120 121 122 124 127 131 139
271 278 310 65 103 105 102 101 102 100 105 90 85 115 134 143 143 139 136 131 127 126 137 145 141 152 153 144 140 144 139 139 141 145 148 153 154 144 145 121 127 130 133 136 140 146 152 162 182
263 276 29 73 92 102 102 108 112 102 94 96 100 115 134 145 148 149 146 142 133 135 142 135 136 145 150 138 144 158 158 153 171 158 165 181 167 133 124 131 139 145 150 157 168 175 185 201 189
270 255 327 83 89 101 116 120 112 111 125 127 129 136 146 150 154 155 151 146 137 146 145 134 125 139 140 128 158 151 149 151 171 165 165 166 149 134 131 149 152 165 175 183 174 194 214 206 198
252 265 33 62 86 106 109 109 106 106 117 131 137 144 151 158 162 160 153 147 145 156 151 136 131 137 117 125 138 148 158 162 159 161 174 152 144 143 146 159 171 176 183 190 186 208 203 186 183
240 254 150 115 122 92 91 92 96 109 113 122 134 147 157 163 164 159 151 145 148 154 147 126 129 124 116 98 226 166 150 147 147 158 163 148 156 152 142 149 175 184 172 183 202 188 153 125 177
264 259 225 201 174 143 161 138 128 122 123 131 141 153 164 165 162 155 151 147 152 160 150 138 138 136 140 153 225 346 135 123 148 163 156 161 150 139 137 151 198 210 172 166 195 166 155 178 210
267 268 250 216 193 166 181 170 145 137 136 143 150 160 163 162 160 161 159 158 158 160 150 145 150 148 160 176 196 194 191 167 163 146 146 162 160 144 164 169 201 214 166 151 188 206 185 196 194
249 250 250 225 185 166 201 192 147 151 150 150 158 161 162 162 167 165 162 161 159 159 152 162 170 155 164 185 204 225 209 154 149 146 150 164 159 155 176 189 202 194 197 179 201 225 207 220 207
225 228 232 215 182 175 196 196 150 168 164 160 165 163 163 166 172 166 165 163 159 155 155 165 169 156 168 182 193 231 218 153 151 151 152 164 167 170 194 212 189 197 212 207 218 187 209 230 231
242 223 222 213 168 173 203 202 177 184 172 168 168 165 165 171 175 167 167 163 157 156 158 163 169 161 165 175 183 222 224 195 194 164 157 158 174 183 203 217 193 214 216 227 224 177 217 226 234
271 271 249 216 152 172 214 217 199 186 182 173 173 167 169 175 173 166 165 164 161 162 164 166 175 170 172 180 184 195 204 203 204 193 167 173 190 190 200 233 184 212 220 219 213 209 219 226 225
263 270 253 216 145 182 233 239 217 189 187 179 179 173 174 172 167 164 167 167 165 166 169 171 177 176 184 187 187 193 189 194 205 211 168 182 199 204 202 209 215 207 216 225 235 236 231 230 212
250 258 261 257 197 218 247 247 228 200 191 182 184 182 179 174 169 167 172 174 173 172 177 177 176 178 187 185 181 199 187 214 209 192 184 198 206 207 229 203 217 215 213 211 217 224 226 236 235
244 249 263 264 247 247 237 248 220 207 200 189 191 185 178 177 170 171 173 176 176 174 174 170 170 176 181 184 188 197 198 204 211 196 188 194 206 209 211 211 215 226 236 220 218 212 216 226 244
248 255 256 262 258 262 256 254 229 205 207 198 197 185 174 172 171 169 172 172 172 171 169 169 165 174 177 186 193 199 213 216 215 200 196 195 203 212 219 211 210 218 233 237 231 221 217 224 232
242 251 250 257 256 248 249 253 236 199 205 199 188 181 171 168 164 161 163 159 166 168 167 166 164 173 177 184 195 199 214 231 237 217 206 202 207 215 216 220 211 220 226 235 232 227 226 233 247
224 226 225 229 232 245 241 241 201 177 193 176 176 174 167 162 155 155 157 159 163 167 167 165 164 172 179 186 197 201 211 228 231 230 228 227 218 219 208 222 215 225 233 238 237 225 236 236 241
215 226 230 237 242 244 237 232 183 158 142 137 149 162 158 157 156 158 158 159 164 166 165 163 165 171 179 186 192 197 204 219 229 236 236 231 223 226 190 191 208 227 237 235 228 228 230 228 231
216 227 241 255 271 271 238 237 174 149 143 146 150 156 158 156 156 155 155 156 157 158 156 156 155 161 172 178 182 190 196 217 227 240 227 243 235 234 206 181 197 225 251 241 237 240 249 236 227
236 227 240 251 266 270 246 224 200 162 159 157 157 165 152 149 151 149 150 149 148 148 141 140 144 152 160 170 180 176 183 192 193 227 229 81 353 356 11 3 189 222 251 254 241 248 245 242 248
222 232 239 251 257 266 261 280 84 154 157 163 160 147 144 154 145 136 132 136 138 139 140 142 141 145 150 158 161 163 157 155 159 155 94 83 55 75 74 341 43 28 314 262 241 243 242 243 262
223 228 231 239 251 266 269 256 82 183 171 155 144 139 144 148 138 131 133 140 137 138 140 143 143 144 143 142 136 129 118 115 118 117 103 87 82 91 91 47 40 303 301 59 62 271 314 356 316